DW8835 La Escala ES current weather conditions

sailwx.info

Wind from 333 at 19 knots gusting 39

Air temperature 7.8° C
Dewpoint -1.7° C

Last reported at 2015-Mar-05 03:43 UTC.
Time now 2015-Mar-05 04:13 UTC

Location: N 42°07' E 003°08'.
View on Google Maps.

See reports from other nearby stations

  
Tides and Currents Weather Stations Pressure Air Temp Water Temp Dewpoint Dewpoint Depression Visibility Wind Speed Wind Dir Waves Ship Positions
date/time (UTC)wind fromknots sea level pressurealtimeterstation pressurevisibilityair tempwater tempwave heightnotes
2015-Mar-05 03:43 333 19 gusting 39 7.8
2015-Mar-05 03:33 320 19 gusting 38 7.8
2015-Mar-05 03:23 338 19 gusting 33 7.8
2015-Mar-05 03:13 319 20 gusting 33 7.8
2015-Mar-05 03:03 313 19 gusting 35 7.8
2015-Mar-05 02:53 013 16 gusting 30 7.8
2015-Mar-05 02:43 331 18 gusting 29 7.8
2015-Mar-05 02:33 301 20 gusting 33 7.8
2015-Mar-05 02:23 317 20 gusting 39 7.8
2015-Mar-05 02:13 312 18 gusting 33 7.8
2015-Mar-05 02:03 304 16 gusting 39 7.8
2015-Mar-05 01:53 333 21 gusting 34 7.8
2015-Mar-05 01:43 303 22 gusting 32 7.8
2015-Mar-05 01:33 318 14 gusting 25 7.8
2015-Mar-05 01:23 311 19 gusting 32 7.8
2015-Mar-05 01:13 323 18 gusting 32 7.8
2015-Mar-05 01:03 348 15 gusting 33 7.8
2015-Mar-05 00:53 323 18 gusting 34 7.8
2015-Mar-05 00:43 333 19 gusting 34 7.8
2015-Mar-05 00:33 355 13 gusting 28 7.8
2015-Mar-05 00:23 005 15 gusting 33 7.8
2015-Mar-05 00:13 338 19 gusting 32 8.3
2015-Mar-05 00:03 279 23 gusting 39 8.3
2015-Mar-04 23:53 316 19 gusting 39 8.3
2015-Mar-04 23:43 355 18 gusting 33 8.3
2015-Mar-04 23:33 302 17 gusting 37 8.3
2015-Mar-04 23:23 334 26 gusting 40 8.3
2015-Mar-04 23:13 333 19 gusting 42 8.3
2015-Mar-04 23:03 316 20 gusting 42 8.3
2015-Mar-04 22:53 316 18 gusting 38 8.3
2015-Mar-04 22:43 348 16 gusting 39 8.3
2015-Mar-04 22:33 349 20 gusting 31 8.3
2015-Mar-04 22:23 344 25 gusting 40 8.9
2015-Mar-04 22:13 308 14 gusting 29 8.9
2015-Mar-04 22:03 349 19 gusting 32 8.9
2015-Mar-04 21:53 311 13 gusting 32 8.9
2015-Mar-04 21:43 311 18 gusting 34 8.9
2015-Mar-04 21:33 333 20 gusting 33 8.9
2015-Mar-04 21:23 320 18 gusting 29 8.9
2015-Mar-04 21:13 318 17 gusting 34 8.9
2015-Mar-04 21:03 309 18 gusting 29 8.9
2015-Mar-04 20:53 355 17 gusting 28 8.9
2015-Mar-04 20:43 338 16 gusting 28 8.9
2015-Mar-04 20:33 316 13 gusting 28 8.9
2015-Mar-04 20:23 311 15 gusting 26 8.3
2015-Mar-04 20:13 320 11 gusting 28 8.3
2015-Mar-04 20:03 313 14 gusting 39 8.9
2015-Mar-04 19:53 333 19 gusting 32 8.9
2015-Mar-04 19:43 298 15 gusting 28 9.4
2015-Mar-04 19:33 329 13 gusting 24 9.4
2015-Mar-04 19:23 336 13 gusting 27 9.4
2015-Mar-04 19:13 348 15 gusting 26 9.4
2015-Mar-04 19:03 349 18 gusting 34 10.0
2015-Mar-04 18:53 309 19 gusting 31 9.4
2015-Mar-04 18:43 329 17 gusting 34 10.0
2015-Mar-04 18:33 329 14 gusting 35 10.0
2015-Mar-04 18:23 325 13 gusting 28 10.0
2015-Mar-04 18:13 355 13 gusting 26 10.0
2015-Mar-04 18:03 338 16 gusting 28 10.0
2015-Mar-04 17:53 344 17 gusting 32 10.0
2015-Mar-04 17:43 355 11 gusting 26 10.0
2015-Mar-04 17:33 018 14 gusting 25 10.0
2015-Mar-04 17:22 322 19 gusting 33 10.6
2015-Mar-04 17:13 316 15 gusting 28 10.6
2015-Mar-04 17:03 326 15 gusting 26 10.6
2015-Mar-04 16:53 326 18 gusting 30 10.6
2015-Mar-04 16:43 317 24 gusting 33 11.1
2015-Mar-04 16:33 331 15 gusting 28 11.1
2015-Mar-04 16:22 355 16 gusting 26 11.1
2015-Mar-04 16:13 312 18 gusting 31 10.6
2015-Mar-04 16:03 327 15 gusting 25 11.1
2015-Mar-04 15:53 338 12 gusting 21 11.1
2015-Mar-04 15:42 338 6 gusting 21 11.1
2015-Mar-04 15:33 302 11 gusting 21 10.6
2015-Mar-04 15:23 329 9 gusting 21 10.6
2015-Mar-04 15:13 333 7 gusting 19 10.6
2015-Mar-04 15:03 043 7 gusting 24 10.6
2015-Mar-04 14:53 360 9 gusting 17 10.0
2015-Mar-04 14:43 326 12 gusting 24 10.0
2015-Mar-04 14:33 303 13 gusting 22 10.0
2015-Mar-04 14:23 323 11 gusting 21 10.0
2015-Mar-04 14:13 319 11 gusting 23 10.0
2015-Mar-04 14:03 333 11 gusting 25 10.0
2015-Mar-04 13:53 286 9 gusting 25 10.0
2015-Mar-04 13:43 325 11 gusting 25 10.0
2015-Mar-04 13:33 339 10 gusting 22 10.0
2015-Mar-04 13:23 332 8 gusting 18 10.0
2015-Mar-04 13:13 315 8 gusting 19 10.0
2015-Mar-04 13:03 318 9 gusting 21 10.0
2015-Mar-04 12:53 347 7 gusting 18 10.0
2015-Mar-04 12:43 285 9 gusting 20 10.0
2015-Mar-04 12:33 331 9 gusting 24 10.0
2015-Mar-04 12:23 345 7 gusting 21 10.0
2015-Mar-04 12:13 313 9 gusting 19 9.4
2015-Mar-04 12:03 020 6 gusting 19 9.4
2015-Mar-04 11:52 340 8 gusting 19 9.4
2015-Mar-04 11:43 294 9 gusting 16 9.4
2015-Mar-04 11:33 028 8 gusting 19 8.9
2015-Mar-04 11:23 303 8 gusting 18 8.9
2015-Mar-04 11:13 323 12 gusting 21 8.9
2015-Mar-04 11:03 347 7 gusting 19 8.9
2015-Mar-04 10:52 355 6 gusting 19 8.9
2015-Mar-04 10:43 329 7 gusting 16 9.4
2015-Mar-04 10:33 332 6 gusting 18 9.4
2015-Mar-04 10:23 005 9 gusting 19 9.4
2015-Mar-04 10:13 344 8 gusting 19 9.4
2015-Mar-04 10:02 323 9 gusting 18 10.0
2015-Mar-04 09:52 338 11 gusting 23 10.0
2015-Mar-04 09:43 024 11 gusting 21 10.6
2015-Mar-04 09:33 346 8 gusting 18 11.1
2015-Mar-04 09:23 325 10 gusting 18 11.7
2015-Mar-04 09:13 360 11 gusting 22 12.2
2015-Mar-04 09:03 312 4 gusting 17 11.7
2015-Mar-04 08:53 346 4 gusting 11 11.7
2015-Mar-04 08:43 005 2 gusting 11 11.1
2015-Mar-04 08:32 335 4 gusting 6 11.1
2015-Mar-04 08:22 011 1 gusting 5 11.1
2015-Mar-04 08:12 089 0 gusting 2 10.6
2015-Mar-04 08:03 090 10.6
2015-Mar-04 07:53 092 10.6
2015-Mar-04 07:43 092 10.6
2015-Mar-04 07:32 093 0 gusting 2 10.6
2015-Mar-04 07:23 096 10.0
2015-Mar-04 07:12 095 0 gusting 4 10.0
2015-Mar-04 07:02 108 0 gusting 3 10.0
2015-Mar-04 06:53 171 9.4
2015-Mar-04 06:43 171 9.4
2015-Mar-04 06:33 171 0 gusting 1 9.4
2015-Mar-04 06:23 170 9.4
2015-Mar-04 06:13 170 9.4
2015-Mar-04 06:02 170 0 gusting 2 9.4
2015-Mar-04 05:53 170 9.4
2015-Mar-04 05:42 170 10.0
2015-Mar-04 05:33 170 10.0
2015-Mar-04 05:22 170 10.0
2015-Mar-04 05:12 170 10.0
2015-Mar-04 05:03 170 10.0
2015-Mar-04 04:53 170 10.0
2015-Mar-04 04:43 170 10.0
2015-Mar-04 04:33 170 10.6
2015-Mar-04 04:22 170 10.6
2015-Mar-04 04:13 170 1 gusting 2 10.0
2015-Mar-04 04:03 167 10.0
2015-Mar-04 03:53 167 0 gusting 3 10.0
2015-Mar-04 03:42 163 1 gusting 4 10.6
2015-Mar-04 03:33 181 2 gusting 3 10.6
2015-Mar-04 03:22 201 10.6
2015-Mar-04 03:13 199 0 gusting 2 10.6
2015-Mar-04 03:03 200 10.6
2015-Mar-04 02:53 167 10.6
2015-Mar-04 02:42 163 10.6
2015-Mar-04 02:33 163 10.6
2015-Mar-04 02:23 163 10.6
2015-Mar-04 02:12 163 10.6
2015-Mar-04 02:03 163 10.6
2015-Mar-04 01:53 163 10.6
2015-Mar-04 01:43 198 10.6
2015-Mar-04 01:32 198 10.6
2015-Mar-04 01:22 198 10.6
2015-Mar-04 01:12 197 0 gusting 1 10.6
2015-Mar-04 01:03 197 0 gusting 2 10.6
2015-Mar-04 00:53 192 1 gusting 3 10.6
2015-Mar-04 00:42 204 10.6
2015-Mar-04 00:33 204 10.6
2015-Mar-04 00:23 206 0 gusting 2 10.6
2015-Mar-04 00:12 203 10.6
2015-Mar-04 00:03 204 1 gusting 3 10.6
2015-Mar-03 23:53 198 10.6
2015-Mar-03 23:42 197 10.6
2015-Mar-03 23:32 195 0 gusting 3 10.6
2015-Mar-03 23:23 197 0 gusting 3 10.6
2015-Mar-03 23:13 194 11.1
2015-Mar-03 23:02 196 0 gusting 2 11.1
2015-Mar-03 22:53 198 0 gusting 2 11.1
2015-Mar-03 22:42 195 11.1
2015-Mar-03 22:32 195 1 gusting 2 11.1
2015-Mar-03 22:22 194 11.1
2015-Mar-03 22:13 194 11.1
2015-Mar-03 22:02 194 11.1
2015-Mar-03 21:52 194 11.7
2015-Mar-03 21:42 193 0 gusting 2 11.7
2015-Mar-03 21:22 194 0 gusting 2 11.7
2015-Mar-03 21:13 193 1 gusting 3 12.2
2015-Mar-03 21:03 194 1 gusting 3 12.2
2015-Mar-03 20:52 192 2 gusting 4 12.8
2015-Mar-03 20:43 311 2 gusting 4 12.8
2015-Mar-03 20:32 315 2 gusting 4 12.8
2015-Mar-03 20:23 313 3 gusting 5 12.8
2015-Mar-03 20:12 286 3 gusting 6 12.8
2015-Mar-03 20:03 315 2 gusting 4 12.8
2015-Mar-03 19:53 317 2 gusting 6 12.8
2015-Mar-03 19:43 300 4 gusting 6 12.8
2015-Mar-03 19:33 183 0 gusting 4 13.3
2015-Mar-03 19:22 175 2 gusting 4 13.3
2015-Mar-03 19:13 178 2 gusting 7 13.3
2015-Mar-03 19:03 188 5 gusting 7 13.3
2015-Mar-03 18:52 173 3 gusting 6 13.3
2015-Mar-03 18:42 179 4 gusting 5 13.3
2015-Mar-03 18:32 165 2 gusting 6 13.3
2015-Mar-03 18:22 171 4 gusting 7 13.9
2015-Mar-03 18:12 189 4 gusting 7 13.9
2015-Mar-03 18:02 178 4 gusting 7 13.9
2015-Mar-03 17:52 189 4 gusting 6 13.9
2015-Mar-03 17:42 178 4 gusting 8 13.9
2015-Mar-03 17:32 182 4 gusting 9 13.9
2015-Mar-03 17:22 157 5 gusting 12 13.9
2015-Mar-03 17:13 173 6 gusting 11 13.9
2015-Mar-03 17:02 175 5 gusting 13 14.4
2015-Mar-03 16:52 176 6 gusting 13 14.4
2015-Mar-03 16:42 158 6 gusting 15 14.4
2015-Mar-03 16:33 155 6 gusting 13 14.4
2015-Mar-03 16:22 171 7 gusting 13 14.4
2015-Mar-03 16:12 173 6 gusting 13 15.0
2015-Mar-03 16:02 183 6 gusting 13 15.0
2015-Mar-03 15:52 164 6 gusting 13 15.0
2015-Mar-03 15:42 145 4 gusting 10 15.0
2015-Mar-03 15:32 148 6 gusting 12 15.0
2015-Mar-03 15:22 169 6 gusting 13 15.0
2015-Mar-03 15:13 136 7 gusting 11 15.0
2015-Mar-03 15:02 162 7 gusting 12 15.6
2015-Mar-03 14:52 147 6 gusting 12 15.6
2015-Mar-03 14:42 156 5 gusting 11 15.6
2015-Mar-03 14:33 132 7 gusting 11 15.6
2015-Mar-03 14:23 175 4 gusting 8 16.1
2015-Mar-03 14:12 146 6 gusting 10 15.6
2015-Mar-03 14:02 173 6 gusting 10 15.6
2015-Mar-03 13:52 130 3 gusting 7 15.0
2015-Mar-03 13:42 162 3 gusting 7 15.0
2015-Mar-03 13:32 159 3 gusting 8 14.4
2015-Mar-03 13:22 178 5 gusting 8 14.4
2015-Mar-03 13:12 124 4 gusting 7 14.4
2015-Mar-03 13:02 121 5 gusting 10 14.4
2015-Mar-03 12:52 136 3 gusting 8 14.4
2015-Mar-03 12:42 167 2 gusting 6 14.4
2015-Mar-03 12:32 146 2 gusting 6 14.4
2015-Mar-03 12:22 167 2 gusting 7 14.4
2015-Mar-03 12:12 161 3 gusting 6 14.4
2015-Mar-03 12:02 144 3 gusting 5 14.4
2015-Mar-03 11:52 127 3 gusting 6 13.9
2015-Mar-03 11:42 115 2 gusting 6 13.9
2015-Mar-03 11:32 099 1 gusting 6 13.9
2015-Mar-03 11:22 158 4 gusting 6 14.4
2015-Mar-03 11:12 121 1 gusting 4 14.4
2015-Mar-03 11:02 136 0 gusting 4 14.4
2015-Mar-03 10:52 133 1 gusting 4 13.9
2015-Mar-03 10:42 110 3 gusting 6 14.4
2015-Mar-03 10:32 149 1 gusting 5 14.4
2015-Mar-03 10:22 192 2 gusting 5 13.9
2015-Mar-03 10:12 134 13.9
2015-Mar-03 10:02 217 13.9
2015-Mar-03 09:52 218 0 gusting 2 13.9
2015-Mar-03 09:42 219 13.9
2015-Mar-03 09:32 220 0 gusting 3 13.3
2015-Mar-03 09:23 218 1 gusting 2 13.3
2015-Mar-03 09:12 196 13.3
2015-Mar-03 09:02 196 13.3
2015-Mar-03 08:52 196 13.3
2015-Mar-03 08:42 196 13.3
2015-Mar-03 08:32 196 12.8
2015-Mar-03 08:22 196 12.8
2015-Mar-03 08:12 195 0 gusting 1 12.8
2015-Mar-03 08:02 195 12.8
2015-Mar-03 07:52 195 12.8
2015-Mar-03 07:42 195 12.8
2015-Mar-03 07:33 195 12.8
2015-Mar-03 07:22 196 12.8
2015-Mar-03 07:12 195 12.2
2015-Mar-03 07:02 194 0 gusting 2 12.2
2015-Mar-03 06:52 188 1 gusting 2 12.8
2015-Mar-03 06:42 186 12.8
2015-Mar-03 06:32 186 12.8
2015-Mar-03 06:22 186 12.8
2015-Mar-03 06:12 186 12.8
2015-Mar-03 06:02 186 12.8
2015-Mar-03 05:52 186 0 gusting 1 12.8
2015-Mar-03 05:42 186 0 gusting 2 12.8
2015-Mar-03 05:32 186 12.8
2015-Mar-03 05:22 185 0 gusting 3 12.8
2015-Mar-03 05:12 177 1 gusting 2 12.8
2015-Mar-03 05:02 175 12.8
2015-Mar-03 04:52 175 12.8
2015-Mar-03 04:42 196 2 gusting 5 13.3
2015-Mar-03 04:32 184 2 gusting 4 13.3
2015-Mar-03 04:22 076 12.8
2015-Mar-03 04:12 360 12.8
2015-Mar-03 04:02 360 13.3